Preview of NWS' New Version of Forecast
This preview is not operational and should not be used for support decisions.

Regional Weather Roundup (RWR)

Issued by Philadelphia/Mt Holly (PHI)

                            
000
ASUS41 KPHI 181712
RWRPHI

REGIONAL WEATHER ROUNDUP
NATIONAL WEATHER SERVICE MOUNT HOLLY NJ
100 PM EDT WED SEP 18 2019

NOTE:  "FAIR" INDICATES FEW OR NO CLOUDS BELOW 12,000 FEET WITH NO
SIGNIFICANT WEATHER AND/OR OBSTRUCTIONS TO VISIBILITY.

 * = STATION DOES NOT REPORT PRECIPITATION (E.G. RAIN, SNOW, ETC.) 
        OR FOG.

NJZ015>026-181800-
SOUTHERN NEW JERSEY
  
CITY           SKY/WX    TMP DP  RH WIND       PRES   REMARKS
POMONA         PTSUNNY   70  52  52 NE16G25   30.20F                  
WILDWOOD*      PTSUNNY   71  55  56 NE14G23   30.20S                  
MILLVILLE      CLOUDY    70  49  47 N12       30.20F                  
WRIGHTSTOWN    FAIR      70  49  46 NE13      30.21F                  
MOUNT HOLLY    FAIR      68  52  56 VRB3      30.22S                  
TRENTON        CLOUDY    68  49  50 N10       30.22F                  

$$
NJZ001>014-181800-
NORTHERN NEW JERSEY
  
CITY           SKY/WX    TMP DP  RH WIND       PRES   REMARKS
SUSSEX         FAIR      68  46  45 NE10      30.26S                  
ANDOVER*         N/A     66  49  54 VRB3      30.26S                  
MORRISTOWN     PTSUNNY   68  54  60 NE3       30.24F                  
NEWARK         PTSUNNY   67  49  52 VRB5      30.24S                  
TETERBORO      FAIR      67  47  48 NE7       30.23F                  
CALDWELL       FAIR      70  49  47 E9        30.25F                  
SOMERVILLE     FAIR      71  49  45 MISG      30.22F                  
ALLAIRE*       CLOUDY    66  52  60 NE10      30.24F                  
TOMS RIVER*    CLOUDY    69  53  56 NE12G18   30.23F                  

$$
PAZ043-044-047-054-055-060>062-066>071-181800-
EASTERN PENNSYLVANIA
  
CITY           SKY/WX    TMP DP  RH WIND       PRES   REMARKS
PHILADELPHIA   FAIR      74  49  41 NE12G20   30.22F                  
NORTH PHILA    PTSUNNY   72  50  45 E7        30.23F                  
BLUE BELL*     FAIR      68  51  53 E8        30.23S                  
DOYLESTOWN     FAIR      69  49  48 NE8       30.23S                  
QUAKERTOWN*    MOSUNNY   68  50  52 VRB6      30.24                   
PERKASIE*      PTSUNNY   66  50  55 NE8       30.25S                  
POTTSTOWN      FAIR      67  51  56 NE6       30.25F                  
LANCASTER      FAIR      73  49  42 CALM      30.23F                  
COATESVILLE    FAIR      70  50  49 NE7       30.25S                  
WEST CHESTER   CLOUDY    68  52  56 N5        30.23S                  
READING        FAIR      70  51  51 NE8       30.22F                  
ALLENTOWN      FAIR      70  48  45 NE10      30.24F                  
QN CITY/ALNTWN PTSUNNY   68  50  52 N7        30.25F                  
MOUNT POCONO   FAIR      63  45  51 VRB3      30.26S                  
HAZLETON       FAIR      66  41  39 N5        30.28F                  
LEHIGHTON      FAIR      68  46  45 CALM      30.25S                  
WILKES BARRE   FAIR      71  42  35 VRB7      30.26S                  

$$
DEZALL-MDZ008-012-015-019-020-181800-
DELAWARE AND EASTERN MARYLAND
  
CITY           SKY/WX    TMP DP  RH WIND       PRES   REMARKS
WILMINGTON     PTSUNNY   72  51  47 NE10      30.22F                  
DOVER          PTSUNNY   72  53  51 NE8       30.20F                  
CHESWOLD       MOSUNNY   72  54  53 E10       30.21S                  
GEORGETOWN     NOT AVBL                                               
EASTON         PTSUNNY   73  52  46 NE8       30.24S                  
STEVENSVILLE   PTSUNNY   73  55  53 N10       30.21S                  
ABERDEEN       MOSUNNY   73  54  49 E9        30.21F                  
PATUXENT       PTSUNNY   74  51  44 N10       30.19                   
OCEAN CITY     FAIR      72  55  55 NE16G22   30.19R                  
WALLOPS ISLAND PTSUNNY   71  54  54 NE18G29   30.18S                  
CAMBRIDGE      MOSUNNY   73  52  46 N10G16    30.19S                  
SALISBURY      CLOUDY    72  53  51 NE17      30.19S                  

$$
PAZ001-021-NYZ056-072-MDZ011-DCZ001-181800-
OTHER NEARBY LOCATIONS
  
CITY           SKY/WX    TMP DP  RH WIND       PRES   REMARKS
HARRISBURG     FAIR      72  44  36 MISG      30.22F                  
STATE COLLEGE  SUNNY     66  50  55 N5        30.26F                  
WILLIAMSPORT   FAIR      71  43  36 VRB3      30.23F                  
BINGHAMTON     FAIR      66  42  41 MISG      30.28F                  
NEW YORK CITY  PTSUNNY   67  49  52 VRB6      30.27S                  
BALTIMORE      FAIR      73  52  47 E10       30.21S                  
WASHINGTON DC  PTSUNNY   76  52  43 NE9       30.20F                  

$$